Lid_Strength_Index
4 4 4 4 5 6 7 7 6 4 6 8 10 9 8 9 7 7 7 8 9 10 9 9 9 9 8 8 8 9 8 9 10 9 6 7 7 8 8 11 11 10 11 10
3 4 4 4 5 6 6 7 5 3 5 10 9 9 9 9 7 6 7 8 8 8 9 10 9 9 6 7 8 8 9 10 11 10 9 8 8 8 8 9 9 11 12 10
3 3 4 4 4 5 5 5 7 5 6 7 7 7 7 8 6 7 7 6 7 8 9 9 9 8 6 6 5 4 7 10 9 10 9 8 9 9 9 8 10 10 9 8
3 3 3 4 4 5 5 6 7 7 8 7 6 6 7 8 8 6 6 7 7 7 8 9 9 8 8 6 7 7 8 9 10 9 9 9 9 8 9 8 8 10 8 9
3 3 3 4 4 6 5 6 7 6 8 8 7 8 8 8 7 8 8 8 7 6 8 7 8 8 7 7 7 7 8 9 9 10 8 9 10 8 8 8 8 8 8 9
3 3 3 3 4 5 6 6 5 6 9 7 7 7 7 8 8 7 6 7 7 7 7 5 5 5 5 7 7 8 8 9 10 11 9 9 11 9 8 8 8 8 10 7
3 3 3 3 4 5 6 6 6 8 10 8 7 8 8 8 8 9 7 6 7 5 5 5 6 7 6 6 6 6 9 10 10 10 11 14 8 7 7 8 8 7 8 7
3 3 3 3 3 5 6 6 6 7 9 9 9 8 8 8 7 9 7 5 4 5 6 7 9 8 8 7 7 7 7 9 11 12 11 10 9 8 9 9 8 7 8 7
3 3 3 3 3 5 6 6 5 6 8 9 8 7 8 8 8 7 7 6 6 4 6 7 11 11 10 10 8 7 7 7 9 12 13 13 8 7 6 7 11 6 7 7
3 3 3 3 3 4 5 6 5 5 7 6 6 7 9 7 7 8 7 7 6 4 8 9 10 10 8 11 10 10 9 9 10 10 11 9 7 6 6 12 9 6 6 6
3 3 3 3 3 4 4 5 5 6 7 7 6 5 7 6 6 8 7 7 6 6 9 10 9 10 9 10 9 10 10 10 11 12 13 12 6 7 10 7 6 6 6 6
3 3 3 3 3 4 4 6 5 5 7 7 5 4 4 4 4 6 6 7 6 5 7 8 8 10 9 10 11 7 11 9 10 10 10 7 6 6 5 5 6 6 6 5
3 3 3 3 3 3 4 6 6 6 7 6 6 6 4 3 3 3 6 6 6 5 4 6 7 10 8 11 10 9 7 7 9 9 7 7 6 5 5 5 5 5 5 5
3 3 3 3 4 4 5 6 6 6 6 7 7 4 4 4 3 3 3 5 4 4 4 6 6 8 7 9 9 9 7 7 8 8 6 5 5 5 4 5 5 5 4 4
3 3 4 3 4 4 5 6 5 5 6 8 7 5 6 4 3 4 3 4 4 4 5 6 7 5 7 6 7 8 6 7 8 9 6 6 6 4 4 5 5 5 5 5
4 4 4 4 4 5 5 4 5 5 4 7 10 6 5 3 3 4 4 4 4 4 5 6 5 5 6 8 9 6 5 5 5 6 4 4 4 4 4 4 5 4 4 4
4 4 4 5 5 5 6 5 4 5 4 6 8 7 3 3 3 3 3 4 4 4 5 6 6 5 5 7 9 6 5 5 5 4 4 5 5 5 4 4 4 4 3 3
4 4 5 5 5 6 4 3 4 4 5 5 8 8 6 3 5 5 3 5 4 5 6 5 6 5 6 9 7 6 5 5 5 4 4 4 4 4 4 4 4 4 4 4
4 5 5 5 4 4 4 4 4 4 5 7 7 9 9 4 5 4 4 4 7 4 7 7 6 7 9 8 7 6 6 6 6 5 4 4 5 5 4 4 4 5 5 4
5 6 5 5 4 5 4 4 6 5 5 6 8 6 8 5 6 6 6 6 8 9 7 5 8 9 6 6 5 5 5 5 4 6 6 5 5 5 5 5 4 4 4 4
7 9 8 7 5 4 5 7 7 7 8 6 6 6 7 4 8 7 6 8 8 10 9 9 9 10 7 5 5 4 4 4 4 4 4 4 4 4 4 4 4 3 3 3
8 7 6 6 5 6 8 9 8 9 10 7 7 7 6 5 4 7 6 9 8 12 7 9 11 8 6 5 5 4 4 4 4 3 4 4 4 3 4 4 4 3 3 3
7 8 8 7 7 12 11 12 10 10 7 6 6 8 6 5 5 7 7 10 10 6 10 10 9 7 5 5 4 4 3 3 4 4 3 3 3 3 3 3 3 3 3 2
8 8 13 10 10 9 9 8 8 6 6 6 6 7 7 6 7 7 10 8 8 12 13 12 8 6 5 4 4 4 4 4 4 4 4 3 4 3 3 3 3 3 3 3
10 8 12 9 7 7 7 6 6 5 4 5 7 7 6 8 9 8 9 11 12 11 11 8 6 5 5 5 4 4 4 4 4 4 4 3 4 4 4 3 3 2 2 2
8 9 9 7 8 8 7 6 6 5 5 5 5 8 9 10 9 10 11 12 12 9 7 6 5 5 4 4 4 4 3 3 3 3 4 3 3 4 3 2 2 2 2 2
9 9 7 7 8 8 7 6 6 5 5 8 7 10 10 8 10 11 9 10 7 6 5 4 4 4 4 4 3 3 3 3 3 3 3 3 3 2 3 3 3 2 2 2